This demonstration page uses our WeatherBlox Daily Observations layout. Learn more.

Left ArrowRight Arrow

Hourly Observations for September 9, 2022

Temp ( °F °C ) Dew Point ( °F °C ) Humidity (%) Winds ( mph kmh ) Pressure ( in mb ) Visibility ( mi km ) Precip ( " mm )
12:35 am 00:35 undefined 64 18 64 18 100 100 Calm 29.96 1015 N/A 0.00 0.00
12:55 am 00:55 undefined 64 18 63 17 94 94 NNW 3 6 29.96 1015 N/A 0.00 0.00
1:15 am 01:15 undefined 64 18 64 18 100 100 Calm 29.97 1015 N/A 0.00 0.00
1:35 am 01:35 undefined 63 17 63 17 100 100 Calm 29.98 1015 N/A 0.00 0.00
1:55 am 01:55 undefined 64 18 64 18 100 100 Calm 29.97 1015 N/A 0.00 0.00
2:15 am 02:15 undefined 63 17 63 17 100 100 Calm 29.97 1015 N/A 0.00 0.00
2:35 am 02:35 undefined 63 17 63 17 100 100 Calm 29.98 1015 N/A 0.00 0.00
2:55 am 02:55 undefined 63 17 63 17 100 100 Calm 29.98 1015 N/A 0.00 0.00
3:15 am 03:15 Clear 63 17 63 17 100 100 Calm 29.98 1015 10 16 0.00 0.00
3:35 am 03:35 Clear 61 16 61 16 100 100 Calm 29.98 1015 10 16 0.00 0.00
3:55 am 03:55 undefined 63 17 63 17 100 100 Calm 29.98 1015 N/A 0.00 0.00
4:15 am 04:15 undefined 61 16 61 16 100 100 Calm 29.99 1016 N/A 0.00 0.00
4:35 am 04:35 undefined 61 16 61 16 100 100 Calm 30.00 1016 N/A 0.00 0.00
4:55 am 04:55 undefined 63 17 63 17 100 100 Calm 30.00 1016 N/A 0.00 0.00
5:15 am 05:15 undefined 61 16 61 16 100 100 Calm 30.00 1016 N/A 0.00 0.00
5:35 am 05:35 undefined 61 16 61 16 100 100 Calm 30.01 1016 N/A 0.00 0.00
5:55 am 05:55 undefined 61 16 61 16 100 100 Calm 30.01 1016 N/A 0.00 0.00
6:15 am 06:15 undefined 61 16 61 16 100 100 Calm 30.02 1017 N/A 0.00 0.00
6:35 am 06:35 undefined 61 16 61 16 100 100 Calm 30.02 1017 N/A 0.00 0.00
6:55 am 06:55 undefined 61 16 61 16 100 100 Calm 30.03 1017 N/A 0.00 0.00
7:15 am 07:15 undefined 61 16 61 16 100 100 NNW 6 9 30.04 1017 N/A 0.00 0.00
7:35 am 07:35 undefined 63 17 63 17 100 100 N 5 7 30.04 1017 N/A 0.00 0.00
7:55 am 07:55 undefined 64 18 64 18 100 100 NE 3 6 30.04 1017 N/A 0.00 0.00
8:15 am 08:15 undefined 66 19 64 18 94 94 NE 5 7 30.05 1018 N/A 0.00 0.00
8:35 am 08:35 undefined 66 19 64 18 94 94 ENE 5 7 30.06 1018 N/A 0.00 0.00
8:55 am 08:55 Sunny 68 20 64 18 88 88 Calm 30.07 1018 10 16 0.00 0.00
9:15 am 09:15 Sunny 70 21 64 18 83 83 Calm 30.07 1018 10 16 0.00 0.00
9:35 am 09:35 Sunny 70 21 64 18 83 83 NNE 6 9 30.07 1018 10 16 0.00 0.00
9:55 am 09:55 Sunny 72 22 66 19 83 83 NE 5 7 30.08 1019 10 16 0.00 0.00
10:15 am 10:15 Sunny 73 23 64 18 73 73 Calm 30.08 1018 N/A 0.00 0.00
10:35 am 10:35 Sunny 73 23 64 18 73 73 ENE 5 7 30.08 1018 N/A 0.00 0.00
10:55 am 10:55 Sunny 75 24 64 18 69 69 NE 5 7 30.07 1018 N/A 0.00 0.00
11:15 am 11:15 Sunny 77 25 64 18 65 65 ENE 3 6 30.07 1018 10 16 0.00 0.00
11:35 am 11:35 Partly Cloudy 77 25 61 16 57 57 E 6 9 30.07 1018 10 16 0.00 0.00
11:55 am 11:55 Partly Cloudy 79 26 63 17 58 58 SE 7 11 30.07 1018 10 16 0.00 0.00
12:15 pm 12:15 Mostly Cloudy 79 26 63 17 58 58 ESE 6 9 30.06 1018 10 16 0.00 0.00
12:35 pm 12:35 Mostly Cloudy 79 26 63 17 58 58 NE 6 9 30.06 1018 N/A 0.00 0.00
12:55 pm 12:55 Mostly Cloudy 79 26 63 17 58 58 ESE 6 9 30.06 1018 10 16 0.00 0.00
1:15 pm 13:15 Mostly Cloudy 79 26 63 17 58 58 ENE 5 7 30.06 1018 10 16 0.00 0.00
1:35 pm 13:35 Mostly Cloudy 79 26 61 16 54 54 SSE 7 11 30.06 1018 10 16 0.00 0.00
1:55 pm 13:55 Mostly Cloudy 81 27 61 16 51 51 ESE 7 11 30.06 1018 10 16 0.00 0.00
2:15 pm 14:15 Mostly Cloudy 81 27 61 16 51 51 ESE 6 9 30.06 1018 10 16 0.00 0.00
2:35 pm 14:35 Partly Cloudy 81 27 61 16 51 51 Calm 30.05 1018 10 16 0.00 0.00
2:55 pm 14:55 Mostly Cloudy 81 27 61 16 51 51 ENE 9 15 30.05 1018 10 16 0.00 0.00
3:15 pm 15:15 Mostly Cloudy 82 28 61 16 48 48 E 9 15 30.05 1018 10 16 0.00 0.00
3:35 pm 15:35 Partly Cloudy 81 27 61 16 51 51 SE 6 9 30.04 1017 10 16 0.00 0.00
3:55 pm 15:55 Sunny 81 27 61 16 51 51 ESE 8 13 30.04 1017 10 16 0.00 0.00
4:15 pm 16:15 Sunny 81 27 61 16 51 51 ESE 7 11 30.04 1017 10 16 0.00 0.00
4:35 pm 16:35 Sunny 81 27 61 16 51 51 E 5 7 30.05 1018 10 16 0.00 0.00
4:55 pm 16:55 Sunny 81 27 59 15 48 48 ESE 7 11 30.05 1018 10 16 0.00 0.00
5:15 pm 17:15 Partly Cloudy 81 27 59 15 48 48 ESE 8 13 30.05 1018 10 16 0.00 0.00
5:35 pm 17:35 Sunny 81 27 59 15 48 48 ENE 6 9 30.06 1018 10 16 0.00 0.00
5:55 pm 17:55 Sunny 79 26 59 15 51 51 E 7 11 30.06 1018 10 16 0.00 0.00
6:15 pm 18:15 Sunny 81 27 55 13 42 42 ESE 6 9 30.06 1018 10 16 0.00 0.00
6:35 pm 18:35 Sunny 79 26 52 11 39 39 SE 7 11 30.06 1018 10 16 0.00 0.00
6:55 pm 18:55 Sunny 79 26 52 11 39 39 E 5 7 30.07 1018 10 16 0.00 0.00
7:15 pm 19:15 Sunny 77 25 52 11 41 41 Calm 30.07 1018 10 16 0.00 0.00
7:35 pm 19:35 Clear 75 24 54 12 47 47 E 3 6 30.07 1018 10 16 0.00 0.00
7:55 pm 19:55 Clear 73 23 54 12 50 50 ESE 3 6 30.09 1019 10 16 0.00 0.00
8:15 pm 20:15 Clear 75 24 55 13 50 50 SE 3 6 30.10 1019 10 16 0.00 0.00
8:35 pm 20:35 Clear 73 23 57 14 57 57 E 3 6 30.11 1020 10 16 0.00 0.00
8:55 pm 20:55 Clear 72 22 59 15 65 65 ESE 3 6 30.12 1020 10 16 0.00 0.00
9:15 pm 21:15 Clear 72 22 59 15 65 65 ESE 3 6 30.12 1020 10 16 0.00 0.00
9:35 pm 21:35 Clear 72 22 59 15 65 65 ESE 3 6 30.13 1020 10 16 0.00 0.00
9:55 pm 21:55 Clear 66 19 59 15 78 78 Calm 30.14 1021 N/A 0.00 0.00
10:15 pm 22:15 Clear 66 19 59 15 78 78 Calm 30.15 1021 N/A 0.00 0.00
10:35 pm 22:35 Clear 64 18 59 15 83 83 Calm 30.15 1021 N/A 0.00 0.00
10:55 pm 22:55 Clear 64 18 59 15 83 83 Calm 30.15 1021 10 16 0.00 0.00
11:15 pm 23:15 Clear 61 16 59 15 94 94 Calm 30.17 1022 10 16 0.00 0.00
11:35 pm 23:35 Clear 63 17 59 15 88 88 Calm 30.17 1022 10 16 0.00 0.00
11:55 pm 23:55 undefined 63 17 61 16 94 94 Calm 30.18 1022 N/A 0.00 0.00

Powered by AerisWeather